Regional Weather Roundup
Issued by NWS Charleston, SC

Current Version | Previous Version | Text Only | Print | Product List | Glossary Off
Versions: 1 2 3 4 5 6 7 8 9 10 11 12 13 14 15 16 17 18 19 20 21 22 23 24 25 26 27 28 29 30 31 32 33 34 35 36 37 38 39 40 41 42 43 44 45 46 47 48 49 50

000
ASUS42 KCHS 302213
RWRCHS

REGIONAL WEATHER ROUNDUP
NATIONAL WEATHER SERVICE CHARLESTON SC
600 PM EDT MON MAY 30 2016

NOTE: "FAIR" INDICATES FEW OR NO CLOUDS BELOW 12,000 FEET WITH NO
SIGNIFICANT WEATHER AND/OR OBSTRUCTIONS TO VISIBILITY.

NOT ALL STATIONS ARE QUALITY CONTROLLED. USE DATA WITH CAUTION...
ESPECIALLY DEWPOINT OBSERVATIONS.

SCZ027-030-031-034>040-042>050-302300-
...SOUTHEAST SOUTH CAROLINA...

CITY           SKY/WX    TMP DP  RH WIND       PRES   REMARKS
N CHARLESTON   CLOUDY    76  71  85 W7        29.86S
WATERFRONT PRK   N/A     77  71  82 VRB2      29.84F
MOUNT PLEASANT CLOUDY    75  73  94 CALM      29.86S
JOHNS ISLAND   CLOUDY    77  72  83 W9G16     29.86S HAZE
PINOPOLIS      NOT AVBL
MONCKS CORNER  CLOUDY    70  68  94 NW3       29.86F
SUMMERVILLE    RAIN      73  73 100 N7        29.88S
BEAUFORT MCAS  SUNNY     81  71  71 N6        29.88F
BEAUFORT ARPT  FAIR      81  68  65 NW8       29.88S
HILTON HEAD IS MOSUNNY   86  70  58 N14       29.88F HX  90
WALTERBORO     DRIZZLE   73  73 100 N7        29.90S
ALLENDALE      FAIR      84  70  61 VRB3      29.87F

...SOUTHERN MIDLANDS AND PEE DEE...

CITY           SKY/WX    TMP DP  RH WIND       PRES   REMARKS
GEORGETOWN     CLOUDY    72  70  94 S5        29.87S
KINGSTREE      CLOUDY    72  68  88 NW3       29.87S
ORANGEBURG     CLOUDY    76  71  85 CALM      29.89S
BARNWELL       FAIR      88  73  62 N6        29.88F HX  96
AIKEN          FAIR      84  64  51 NW8G17    29.93S
MANNING        RAIN      70  70 100 N8        29.88R
COLUMBIA       CLOUDY    84  67  56 NE8       29.88R
SUMTER         CLOUDY    74  71  90 N12       29.86F
FLORENCE       CLOUDY    75  71  87 S5        29.88R
MYRTLE BEACH   PTSUNNY   79  66  65 SE10      29.89S
N MYRTLE BEACH LGT RAIN  77  70  79 SE8       29.87S

$$

GAZ063-065-086>088-099>101-113>116-118-119-134>141-150-302300-
...SOUTHEAST GEORGIA...

CITY           SKY/WX    TMP DP  RH WIND       PRES   REMARKS
SAVANNAH ARPT  MOSUNNY   87  65  47 NW15      29.88F
HUNTER AAF     SUNNY     87  71  58 W8        29.85F HX  93
FORT STEWART   SUNNY     89  63  41 N8        29.85F HX  90
STATESBORO     SUNNY     87  68  52 NW10G16   29.89F HX  90
SYLVANIA       PTCLDY    88  68  50 NW9       29.90S HX  91
CLAXTON        FAIR      89  66  47 W6        29.89F HX  91

...CSRA...CENTRAL AND FAR SOUTHEAST GEORGIA...

CITY           SKY/WX    TMP DP  RH WIND       PRES   REMARKS
THOMSON        SUNNY     91  64  40 NW6       29.94S HX  92
AUGUSTA-BUSH   MOSUNNY   89  64  43 N8        29.88S HX  90
AUGUSTA-DANIEL SUNNY     89  63  41 VRB5      29.91S HX  90
SWAINSBORO     MOCLDY    90  63  40 NW10      29.90F HX  90
VIDALIA        MOSUNNY   90  63  40 N6        29.89F HX  90
EASTMAN        FAIR      92  58  31 N5        29.92F HX  91
HAZLEHURST     FAIR      93  58  30 CALM      29.89S HX  92
ALMA           MOSUNNY   92  60  34 NW13      29.89S HX  91
WAYCROSS       SUNNY     92  63  37 N9        29.88S HX  93
JESUP          FAIR      86  59  39 N7        29.88F
BAXLEY         FAIR      91  61  35 N10       29.88F HX  91
BRUNSWICK      SUNNY     95  63  34 N3        29.88S HX  96
SAINT SIMONS   SUNNY     86  71  60 E12       29.87S HX  91

$$

SCZ027-028-034-036>038-045-046-048>050-GAZ119-141-302300-
...LAKE AND SUPPLEMENTAL COASTAL OBSERVATIONS...

STATION/POSITION TIME  TEMP    WIND        PRES    WAVE   SWELL
                       AIR SEA DIR/SP/G            HT/PER HT/PER/DIR
                 (UTC) (F)     (DEG/KT/KT) (MB)    (FT/S) (FT/S/D)
WINYAH BAY       NOT AVBL
LAKE MURRAY      2100   85     350/  3/  8 1011.2F
ACE BASIN NERRS  NOT AVBL
FORT PULASKI     2100   83 76  320/ 10/ 13 1012.3S
SAPELO ISLAND    2100   91     300/  7     1012.0S

$$

ANZ835-935-AMZ111-154-330-350-352-354-370-450-454-472-302300-
...C-MAN AND BUOY OBSERVATIONS...

STATION/POSITION TIME  TEMP    WIND        PRES    WAVE   SWELL
                       AIR SEA DIR/SP/G            HT/PER HT/PER/DIR
                 (UTC) (F)     (DEG/KT/KT) (MB)    (FT/S) (FT/S/D)
BUOY 41004       2150   74 77  200/  8/ 10 1011.3S   4/ 8   3/ 8
BUOY 41008       2150   79 79  170/  6/  8 1011.9F   2/ 8   2/ 90/ 8
FOLLY BEACH CMAN 2100   76     300/  8/ 11 1011.6F
CAPERS NEARSHORE 2108   75 76  250/  6/ 10 1011.0F
FRIPP NEARSHORE  2108   76 76  340/ 12/ 17 1011.3S


STATION/POSITION TIME  TEMP    WIND        PRES    WAVE   SWELL
                       AIR SEA DIR/SP/G            HT/PER HT/PER/DIR
                 (UTC) (F)     (DEG/KT/KT) (MB)    (FT/S) (FT/S/D)
5E ST. MARYS GA  2101      80                N/A     2/ 8
FRYING PAN BUOY  2100   77 78  170/ 10/ 12 1011.4F
BUOY 41025       2150   77 80  170/ 16/ 19 1013.6F   7/ 8   3/160/ 8
CAPE LOOKOUT NC  2100   75      60/  5/  7 1013.2F
BUOY 41002       2150   76 76  180/ 10/ 12 1014.5S   5/ 8   5/100/ 8
BUOY 41010       2120   80 80  190/  8/ 10 1014.2S
ST AUGUSTINE FL  2200   80 82  150/  9/ 10 1012.9F


$$




USA.gov is the U.S. government's official web portal to all federal, state and local government web resources and services.